TimeCST,TemperatureF,Dew PointF,Humidity,Sea Level PressureIn,VisibilityMPH,Wind Direction,Wind SpeedMPH,Gust SpeedMPH,PrecipitationIn,Events,Conditions,WindDirDegrees,DateUTC
12:00 AM,-37,,,29.44,14,North,9.2,,,Snow,Snow,0,2013-01-08 06:00:00
12:00 AM,-36.4,-9999,N/A,29.44,14.0,North,9.2,-,N/A,,Partly Cloudy,360,2013-01-08 06:00:00
1:00 AM,-36.4,-9999,N/A,29.44,15.0,North,9.2,-,N/A,,Partly Cloudy,10,2013-01-08 07:00:00
2:00 AM,-36.4,-9999,N/A,29.44,15.0,North,9.2,-,N/A,,Partly Cloudy,360,2013-01-08 08:00:00
3:00 AM,-38.2,-9999,N/A,29.45,12.0,North,6.9,-,N/A,,Clear,350,2013-01-08 09:00:00
4:00 AM,-38.2,-9999,N/A,29.46,12.0,North,9.2,-,N/A,,Clear,360,2013-01-08 10:00:00
5:00 AM,-38.2,-9999,N/A,29.46,15.0,North,9.2,-,N/A,,Partly Cloudy,360,2013-01-08 11:00:00
6:00 AM,-37,,,29.46,15,North,10.4,,,Snow,Snow,0,2013-01-08 12:00:00
6:00 AM,-36.4,-9999,N/A,29.46,15.0,North,10.4,-,N/A,,Partly Cloudy,360,2013-01-08 12:00:00
7:00 AM,-36.4,-9999,N/A,29.47,15.0,North,10.4,-,N/A,,Partly Cloudy,10,2013-01-08 13:00:00
8:00 AM,-36.4,-9999,N/A,29.48,15.0,NNE,10.4,-,N/A,,Partly Cloudy,20,2013-01-08 14:00:00
9:00 AM,-36.4,-9999,N/A,29.49,15.0,North,4.6,-,N/A,,Partly Cloudy,360,2013-01-08 15:00:00
10:00 AM,-38.2,-9999,N/A,29.50,15.0,North,6.9,-,N/A,,Partly Cloudy,360,2013-01-08 16:00:00
12:00 PM,-37,,,29.52,15,North,6.9,,,Snow,Snow,0,2013-01-08 18:00:00
12:00 PM,-36.4,-9999,N/A,29.52,15.0,North,6.9,-,N/A,,Partly Cloudy,360,2013-01-08 18:00:00
1:00 PM,-36.4,-9999,N/A,29.52,15.0,North,4.6,-,N/A,,Partly Cloudy,10,2013-01-08 19:00:00
2:00 PM,-38.2,-9999,N/A,29.54,15.0,NNE,4.6,-,N/A,,Partly Cloudy,20,2013-01-08 20:00:00
2:47 PM,-9999,-9999,N/A,-9999,15.0,ESE,2.3,-,N/A,Fog,Partly Cloudy,120,2013-01-08 20:47:00
3:00 PM,-38.2,-9999,N/A,29.56,15.0,SE,2.3,-,N/A,Fog,Partly Cloudy,140,2013-01-08 21:00:00
4:00 PM,-38.2,-9999,N/A,29.58,12.0,SE,3.5,-,N/A,Fog,Partly Cloudy,140,2013-01-08 22:00:00
5:00 PM,-40.0,-9999,N/A,29.59,9.0,SE,4.6,-,N/A,Fog,Partly Cloudy,130,2013-01-08 23:00:00
6:00 PM,-40.0,-9999,N/A,29.60,12.0,SSE,4.6,-,N/A,Fog,Partly Cloudy,160,2013-01-09 00:00:00
7:00 PM,-40.0,-9999,N/A,29.60,12.0,SSE,2.3,-,N/A,Fog,Partly Cloudy,160,2013-01-09 01:00:00
8:00 PM,-40.0,-9999,N/A,29.61,6.0,SE,3.5,-,N/A,,Partly Cloudy,140,2013-01-09 02:00:00
9:00 PM,-40.0,-9999,N/A,29.62,12.0,South,2.3,-,N/A,,Partly Cloudy,180,2013-01-09 03:00:00
10:00 PM,-40.0,-9999,N/A,29.62,10.0,South,3.5,-,N/A,,Partly Cloudy,170,2013-01-09 04:00:00